Regional Weather Roundup
Issued by NWS

Home | Current Version | Previous Version | Graphics & Text | Print | Product List | Glossary Off
Versions: 1 2 3 4 5 6 7 8 9 10 11 12 13 14 15 16 17 18 19 20 21 22 23 24 25 26 27 28 29 30 31 32 33 34 35 36 37 38 39 40 41 42 43 44 45 46 47 48 49 50

000
ASUS43 KFSD 201710
RWRSD

WEATHER ROUNDUP FOR SOUTH DAKOTA
NATIONAL WEATHER SERVICE SIOUX FALLS SD
1200 PM CDT WED SEP 20 2017

NOTE: "FAIR" INDICATES FEW OR NO CLOUDS BELOW 12,000 FEET WITH NO
SIGNIFICANT WEATHER AND/OR OBSTRUCTIONS TO VISIBILITY.


SDZ001>005-009-010-012>017-201800-
NORTHWEST AND NORTH CENTRAL SOUTH DAKOTA

CITY           SKY/WX    TMP DP  RH WIND       PRES   REMARKS
BUFFALO          N/A     61  37  41 SW15      29.69F
MOBRIDGE       SUNNY     65  43  44 SW15      29.77S
$$

SDZ012>016-024>037-041>051-057-063-072>074-201800-
SOUTHWEST AND SOUTH CENTRAL SOUTH DAKOTA

CITY           SKY/WX    TMP DP  RH WIND       PRES   REMARKS
RAPID CTY ARPT SUNNY     59  34  38 SW5       29.83S
PIERRE         SUNNY     67  39  35 SW13      29.80F
CUSTER         SUNNY     51  25  36 W14G26    29.88F
ELLSWORTH AFB  SUNNY     60  34  37 S9        29.81F
PHILIP         SUNNY     66  38  35 SW15      29.81F
SPEARFISH      FAIR      59  27  29 SW22      29.80F
WINNER         FAIR      67  44  43 SW15G21   29.88S
$$

SDZ004>011-016>023-039-040-201800-
NORTHEAST SOUTH DAKOTA

CITY           SKY/WX    TMP DP  RH WIND       PRES   REMARKS
ABERDEEN       SUNNY     65  43  44 S9        29.80S
WATERTOWN      SUNNY     62  44  51 W13       29.82R
BROOKINGS      SUNNY     64  47  53 W13       29.84R
SISSETON         N/A     66  45  46 W10       29.79R
$$

SDZ017-020-022-023-036>040-048>070-201800-
SOUTHEAST SOUTH DAKOTA

CITY           SKY/WX    TMP DP  RH WIND       PRES   REMARKS
SIOUX FALLS    MOSUNNY   66  52  60 NW10      29.86R
HURON          SUNNY     66  44  45 SW10      29.84S
CHAMBERLAIN    SUNNY     67  44  42 SW9       29.87S
MITCHELL       SUNNY     66  48  52 W12       29.86S
YANKTON        MOSUNNY   66  48  52 W6        29.88R
$$

ABBREVIATIONS USED IN REMARKS
   TC - TEMPERATURE IN CELSIUS
  WCI - WIND CHILL INDEX
   HX - HEAT INDEX
  VSB - VISIBILITY





USA.gov is the U.S. government's official web portal to all federal, state and local government web resources and services.